Simultaneous Nadir Overpasses (SNOs) Predictions

Prediction of SNOs between AQUA and METOP-A Satellite Orbit:

Table of predicted SNOs for the next 14.0 days since TLE Epoch: 8/3/2012
Index Date (AQUA) Time (AQUA) AQUA Lat,Lon Date (METOP-A) Time (METOP-A) METOP-A Lat,Lon Distance(km) Time Diff (sec)
1 08/05/2012 05:00:22 73.76, 99.30 08/05/2012 04:59:22 73.77, 99.26 1.61 60
2 08/05/2012 05:49:49 -73.84, -93.23 08/05/2012 05:50:02 -73.85, -93.22 1.72 13
3 08/05/2012 06:39:25 74.28, 73.40 08/05/2012 06:40:33 74.29, 75.20 54.41 68
4 08/08/2012 00:34:34 73.79, 165.67 08/08/2012 00:33:45 73.79, 165.71 1.49 49
5 08/08/2012 01:24:01 -73.87, -26.85 08/08/2012 01:24:25 -73.87, -26.76 3.00 24
6 08/10/2012 20:08:45 73.80,-127.90 08/10/2012 20:08:08 73.80,-127.86 1.34 37
7 08/10/2012 20:58:12 -73.87, 39.59 08/10/2012 20:58:48 -73.89, 39.67 3.03 36
8 08/13/2012 15:42:55 73.78, -61.40 08/13/2012 15:42:31 73.80, -61.45 2.81 24
9 08/13/2012 16:32:23 -73.90, 105.98 08/13/2012 16:33:11 -73.89, 106.07 3.08 48
10 08/16/2012 10:27:31 -73.48,-161.93 08/16/2012 10:26:20 -73.45,-163.21 40.40 71
11 08/16/2012 11:17:05 73.84, 4.93 08/16/2012 11:16:52 73.84, 5.04 3.42 13
12 08/16/2012 12:06:32 -73.90, 172.44 08/16/2012 12:07:33 -73.87, 172.45 2.62 61




NCC Satellite Simultaneous Nadir Overpasses (SNOs) Prediction Service
